Location: Góry Miechowskie
(50.3599°N, 20.1803°E)
Time: 16:22:26
(UTC+00:00)

deb Explorer IX - Pass Details

Date: 16 September 2024
Orbit: 504 x 830 km, 38.7° (Epoch: 04 October)

Event Time Altitude Azimuth Distance (km) Brightness Sun altitude
Rises 19:00:29 0° 235° (SW) 3,415 ? -20.5°
Reaches altitude 10° 19:03:28 10° 222° (SW) 2,487 ? -20.9°
Enters shadow 19:07:37 24° 179° (S) 1,695 ? -21.5°
